Location: Unspecified
(50.7693°N, 0.0000°E)
Time: 00:20:04
(UTC+00:00)

Transit 2A - Pass Details

Date: 02 July 2019
Orbit: 594 x 964 km, 66.7° (Epoch: 20 July)

Event Time Altitude Azimuth Distance (km) Brightness Sun altitude
Rises 06:52:59 0° 320° (NW) 3,433 9.1 25.3°
Reaches altitude 10° 06:55:38 10° 315° (NW) 2,435 8.3 25.7°
Maximum altitude 07:00:57 47° 243° (WSW) 1,013 6.6 26.5°
Drops below altitude 10° 07:05:42 10° 170° (S) 2,181 8.5 27.3°
Sets 07:07:59 0° 165° (SSE) 3,041 9.3 27.6°
